,,,PA_Meas_PMT16A,,PR_Meas_QMR101_102,,RH_Meas_QMH101,,SR_Meas_QMS101,,TA_Meas_QMH101,,GenWind,,GenWind,
date,time,status,PA,status,PR,status,RH,status,SR,status,TA,status,DirAvg,status,SpdAvg,
2011-07-22, 00:00:04,VALID,1003.27,VALID,0,INVALID,163.853,VALID,0,VALID,23.3337,VALID,15,VALID,0,
2011-07-22, 00:01:04,VALID,1003.27,VALID,0,INVALID,163.8,VALID,0,VALID,23.3337,VALID,3,VALID,0,
2011-07-22, 00:02:04,VALID,1003.23,VALID,0,INVALID,163.792,VALID,0,VALID,23.3337,VALID,3,VALID,0,
2011-07-22, 00:03:04,VALID,1003.25,VALID,0,INVALID,163.8,VALID,0,VALID,23.3337,VALID,2,VALID,0,
2011-07-22, 00:04:04,VALID,1003.22,VALID,0,INVALID,163.807,VALID,0,VALID,23.3143,VALID,1,VALID,0,
2011-07-22, 00:05:04,VALID,1003.26,VALID,0,INVALID,163.792,VALID,0,VALID,23.2948,VALID,1,VALID,0,
2011-07-22, 00:06:04,VALID,1003.28,VALID,0,INVALID,163.777,VALID,0,VALID,23.2754,VALID,1,VALID,0,
2011-07-22, 00:07:04,VALID,1003.3,VALID,0,INVALID,163.777,VALID,0,VALID,23.2966,VALID,1,VALID,0,
2011-07-22, 00:08:04,VALID,1003.29,VALID,0,INVALID,163.807,VALID,0,VALID,23.2754,VALID,1,VALID,0,
2011-07-22, 00:09:04,VALID,1003.29,VALID,0,INVALID,163.876,VALID,0,VALID,23.2754,VALID,1,VALID,0,
2011-07-22, 00:10:04,VALID,1003.29,VALID,0,INVALID,163.792,VALID,0,VALID,23.2948,VALID,1,VALID,0,
2011-07-22, 00:11:04,VALID,1003.29,VALID,0,INVALID,163.784,VALID,0,VALID,23.2948,VALID,1,VALID,0,
2011-07-22, 00:12:04,VALID,1003.28,VALID,0,INVALID,163.83,VALID,0,VALID,23.2948,VALID,1,VALID,0,
2011-07-22, 00:13:05,VALID,1003.28,VALID,0,INVALID,163.8,VALID,0,VALID,23.2948,VALID,1,VALID,0,
2011-07-22, 00:14:05,VALID,1003.25,VALID,0,INVALID,163.792,VALID,0,VALID,23.2948,VALID,1,VALID,0,
2011-07-22, 00:15:05,VALID,1003.23,VALID,0,INVALID,163.838,VALID,0,VALID,23.2948,VALID,1,VALID,0,
2011-07-22, 00:16:05,VALID,1003.2,VALID,0,INVALID,163.8,VALID,0,VALID,23.2966,VALID,1,VALID,0,
2011-07-22, 00:17:05,VALID,1003.2,VALID,0,INVALID,163.853,VALID,0,VALID,23.2966,VALID,1,VALID,0,
2011-07-22, 00:18:05,VALID,1003.18,VALID,0,INVALID,163.8,VALID,0,VALID,23.2541,VALID,1,VALID,0,
2011-07-22, 00:19:05,VALID,1003.18,VALID,0,INVALID,163.853,VALID,0,VALID,23.2559,VALID,1,VALID,0,
2011-07-22, 00:20:05,VALID,1003.19,VALID,0,INVALID,163.838,VALID,0,VALID,23.2364,VALID,1,VALID,0,
2011-07-22, 00:21:05,VALID,1003.21,VALID,0,INVALID,163.815,VALID,0,VALID,23.217,VALID,1,VALID,0,
2011-07-22, 00:22:05,VALID,1003.18,VALID,0,INVALID,163.815,VALID,0,VALID,23.2347,VALID,1,VALID,0,
2011-07-22, 00:23:05,VALID,1003.17,VALID,0,INVALID,163.823,VALID,0,VALID,23.2541,VALID,1,VALID,0,
2011-07-22, 00:24:05,VALID,1003.18,VALID,0,INVALID,163.8,VALID,0,VALID,23.2577,VALID,1,VALID,0,
2011-07-22, 00:25:05,VALID,1003.14,VALID,0,INVALID,163.792,VALID,0,VALID,23.2152,VALID,1,VALID,0,
2011-07-22, 00:26:05,VALID,1003.14,VALID,0,INVALID,163.83,VALID,0,VALID,23.2364,VALID,1,VALID,0,
2011-07-22, 00:27:05,VALID,1003.13,VALID,0,INVALID,163.792,VALID,0,VALID,23.217,VALID,1,VALID,0,
2011-07-22, 00:28:05,VALID,1003.13,VALID,0,INVALID,163.815,VALID,0,VALID,23.1975,VALID,1,VALID,0,
2011-07-22, 00:29:05,VALID,1003.14,VALID,0,INVALID,163.807,VALID,0,VALID,23.1568,VALID,1,VALID,0,
2011-07-22, 00:30:05,VALID,1003.14,VALID,0,INVALID,163.792,VALID,0.100563,VALID,23.1356,VALID,1,VALID,0,
2011-07-22, 00:31:05,VALID,1003.15,VALID,0,INVALID,163.83,VALID,0,VALID,23.0967,VALID,1,VALID,0,
2011-07-22, 00:32:05,VALID,1003.16,VALID,0,INVALID,163.823,VALID,0,VALID,23.0967,VALID,1,VALID,0,
2011-07-22, 00:33:05,VALID,1003.15,VALID,0,INVALID,163.792,VALID,0.100563,VALID,23.0772,VALID,1,VALID,0,
2011-07-22, 00:34:05,VALID,1003.15,VALID,0,INVALID,163.823,VALID,0.100563,VALID,23.0578,VALID,1,VALID,0,
2011-07-22, 00:35:05,VALID,1003.16,VALID,0,INVALID,163.807,VALID,0,VALID,23.0984,VALID,1,VALID,0,
2011-07-22, 00:36:05,VALID,1003.15,VALID,0,INVALID,163.83,VALID,0,VALID,23.0595,VALID,1,VALID,0,
2011-07-22, 00:37:05,VALID,1003.19,VALID,0,INVALID,163.777,VALID,0.100563,VALID,23.0383,VALID,1,VALID,0,
2011-07-22, 00:38:05,VALID,1003.17,VALID,0,INVALID,163.815,VALID,0,VALID,23.079,VALID,1,VALID,0,
2011-07-22, 00:39:05,VALID,1003.14,VALID,0,INVALID,163.807,VALID,0.100563,VALID,23.0383,VALID,1,VALID,0,
2011-07-22, 00:40:05,VALID,1003.16,VALID,0,INVALID,163.876,VALID,0.100563,VALID,23.0383,VALID,54,VALID,0,
2011-07-22, 00:41:05,VALID,1003.14,VALID,0,INVALID,163.823,VALID,0,VALID,23.0383,VALID,69,VALID,0,
2011-07-22, 00:42:05,VALID,1003.15,VALID,0,INVALID,163.83,VALID,0.100563,VALID,23.0401,VALID,69,VALID,0,
2011-07-22, 00:43:05,VALID,1003.12,VALID,0,INVALID,163.861,VALID,0.100563,VALID,23.0189,VALID,69,VALID,0,
2011-07-22, 00:44:05,VALID,1003.17,VALID,0,INVALID,163.868,VALID,0.100563,VALID,23.0189,VALID,69,VALID,0,
2011-07-22, 00:45:05,VALID,1003.17,VALID,0,INVALID,163.838,VALID,0,VALID,23.0418,VALID,73,VALID,0,
2011-07-22, 00:46:05,VALID,1003.15,VALID,0,INVALID,163.8,VALID,0,VALID,23.0224,VALID,73,VALID,0,
2011-07-22, 00:47:05,VALID,1003.16,VALID,0,INVALID,163.815,VALID,0,VALID,23.0224,VALID,73,VALID,0,
2011-07-22, 00:48:05,VALID,1003.19,VALID,0,INVALID,163.838,VALID,0,VALID,23.0224,VALID,73,VALID,0,
2011-07-22, 00:49:05,VALID,1003.14,VALID,0,INVALID,163.845,VALID,0,VALID,23.0029,VALID,73,VALID,0,
2011-07-22, 00:50:05,VALID,1003.19,VALID,0,INVALID,163.876,VALID,0,VALID,23.0029,VALID,73,VALID,0,
2011-07-22, 00:51:05,VALID,1003.2,VALID,0,INVALID,163.815,VALID,0,VALID,22.9834,VALID,73,VALID,0,
2011-07-22, 00:52:05,VALID,1003.15,VALID,0,INVALID,163.83,VALID,0,VALID,23.0224,VALID,73,VALID,0,
2011-07-22, 00:53:05,VALID,1003.15,VALID,0,INVALID,163.8,VALID,0,VALID,23.0224,VALID,73,VALID,0,
2011-07-22, 00:54:05,VALID,1003.15,VALID,0,INVALID,163.83,VALID,0,VALID,23.0224,VALID,73,VALID,0,
2011-07-22, 00:55:05,VALID,1003.14,VALID,0,INVALID,163.8,VALID,0,VALID,23.0224,VALID,73,VALID,0,
2011-07-22, 00:56:05,VALID,1003.13,VALID,0,INVALID,163.823,VALID,0,VALID,23.0613,VALID,73,VALID,0,
2011-07-22, 00:57:05,VALID,1003.11,VALID,0,INVALID,163.815,VALID,0,VALID,23.0807,VALID,73,VALID,0,
2011-07-22, 00:58:05,VALID,1003.13,VALID,0,INVALID,163.845,VALID,0,VALID,23.0595,VALID,73,VALID,0,
2011-07-22, 00:59:05,VALID,1003.12,VALID,0,INVALID,163.853,VALID,0,VALID,23.079,VALID,73,VALID,0,
2011-07-22, 01:00:05,VALID,1003.11,VALID,0,INVALID,163.807,VALID,0.100563,VALID,23.0595,VALID,73,VALID,0,
2011-07-22, 01:01:05,VALID,1003.11,VALID,0,INVALID,163.838,VALID,0,VALID,23.1002,VALID,73,VALID,0,
2011-07-22, 01:02:05,VALID,1003.09,VALID,0,INVALID,163.83,VALID,0,VALID,23.0984,VALID,73,VALID,0,
2011-07-22, 01:03:05,VALID,1003.06,VALID,0,INVALID,163.83,VALID,0,VALID,23.1179,VALID,73,VALID,0,
2011-07-22, 01:04:05,VALID,1003.08,VALID,0,INVALID,163.807,VALID,0.100563,VALID,23.1374,VALID,73,VALID,0,
2011-07-22, 01:05:05,VALID,1003.11,VALID,0,INVALID,163.792,VALID,0,VALID,23.1586,VALID,73,VALID,0,
2011-07-22, 01:06:05,VALID,1003.11,VALID,0,INVALID,163.807,VALID,0,VALID,23.1568,VALID,73,VALID,0,
2011-07-22, 01:07:05,VALID,1003.16,VALID,0,INVALID,163.868,VALID,0,VALID,23.1568,VALID,72,VALID,0,
2011-07-22, 01:08:05,VALID,1003.17,VALID,0,INVALID,163.83,VALID,0,VALID,23.178,VALID,72,VALID,0,
2011-07-22, 01:09:05,VALID,1003.19,VALID,0,INVALID,163.83,VALID,0,VALID,23.1763,VALID,72,VALID,0,
2011-07-22, 01:10:05,VALID,1003.21,VALID,0,INVALID,163.815,VALID,0,VALID,23.1957,VALID,72,VALID,0,
2011-07-22, 01:11:05,VALID,1003.18,VALID,0,INVALID,163.792,VALID,0,VALID,23.1763,VALID,72,VALID,0,
2011-07-22, 01:12:05,VALID,1003.2,VALID,0,INVALID,163.861,VALID,0,VALID,23.217,VALID,72,VALID,0,
2011-07-22, 01:13:05,VALID,1003.21,VALID,0,INVALID,163.823,VALID,0,VALID,23.1957,VALID,72,VALID,0,
2011-07-22, 01:14:05,VALID,1003.21,VALID,0,INVALID,163.807,VALID,0,VALID,23.1957,VALID,72,VALID,0,
2011-07-22, 01:15:05,VALID,1003.26,VALID,0,INVALID,163.868,VALID,0.100563,VALID,23.2152,VALID,72,VALID,0,
2011-07-22, 01:16:05,VALID,1003.25,VALID,0,INVALID,163.823,VALID,0.100563,VALID,23.2347,VALID,72,VALID,0,
2011-07-22, 01:17:05,VALID,1003.23,VALID,0,INVALID,163.8,VALID,0.100563,VALID,23.2329,VALID,72,VALID,0,
2011-07-22, 01:18:05,VALID,1003.2,VALID,0,INVALID,163.823,VALID,0.100563,VALID,23.2524,VALID,72,VALID,0,
2011-07-22, 01:19:05,VALID,1003.22,VALID,0,INVALID,163.8,VALID,0.100563,VALID,23.2718,VALID,72,VALID,0,
2011-07-22, 01:20:05,VALID,1003.23,VALID,0,INVALID,163.769,VALID,0,VALID,23.3125,VALID,72,VALID,0,
2011-07-22, 01:21:05,VALID,1003.22,VALID,0,INVALID,163.823,VALID,0.100563,VALID,23.3107,VALID,77,VALID,0,
2011-07-22, 01:22:05,VALID,1003.21,VALID,0,INVALID,163.784,VALID,0.100563,VALID,23.3904,VALID,93,VALID,0,
2011-07-22, 01:23:05,VALID,1003.21,VALID,0,INVALID,163.838,VALID,0.100563,VALID,23.408,VALID,93,VALID,0,
2011-07-22, 01:24:05,VALID,1003.17,VALID,0,INVALID,163.792,VALID,0.100563,VALID,23.4859,VALID,124,VALID,0,
2011-07-22, 01:25:05,VALID,1003.19,VALID,0,INVALID,163.777,VALID,0.100563,VALID,23.5832,VALID,134,VALID,0,
2011-07-22, 01:26:05,VALID,1003.22,VALID,0,INVALID,163.762,VALID,0.100563,VALID,23.661,VALID,127,VALID,0,
2011-07-22, 01:27:05,VALID,1003.23,VALID,0,INVALID,163.754,VALID,0.100563,VALID,23.7194,VALID,137,VALID,0,
2011-07-22, 01:28:05,VALID,1003.27,VALID,0,INVALID,163.739,VALID,0.100563,VALID,23.7991,VALID,137,VALID,0,
2011-07-22, 01:29:05,VALID,1003.27,VALID,0,INVALID,163.762,VALID,0.100563,VALID,23.8787,VALID,156,VALID,0,
2011-07-22, 01:30:05,VALID,1003.28,VALID,0,INVALID,163.762,VALID,0.100563,VALID,23.9937,VALID,161,VALID,0,
2011-07-22, 01:31:05,VALID,1003.26,VALID,0,INVALID,163.739,VALID,0.100563,VALID,24.0503,VALID,150,VALID,0,
2011-07-22, 01:32:05,VALID,1003.28,VALID,0,INVALID,163.723,VALID,0.100563,VALID,24.2273,VALID,178,VALID,0,
2011-07-22, 01:33:05,VALID,1003.31,VALID,0,INVALID,163.701,VALID,0.100563,VALID,24.3246,VALID,211,VALID,0,
2011-07-22, 01:34:05,VALID,1003.31,VALID,0,INVALID,163.693,VALID,0.100563,VALID,24.3636,VALID,187,VALID,0,
2011-07-22, 01:35:05,VALID,1003.28,VALID,0,INVALID,163.746,VALID,0.100563,VALID,24.4025,VALID,190,VALID,0,
2011-07-22, 01:36:05,VALID,1003.3,VALID,0,INVALID,163.723,VALID,0.100563,VALID,24.3812,VALID,198,VALID,0,
2011-07-22, 01:37:05,VALID,1003.32,VALID,0,INVALID,163.701,VALID,0.100563,VALID,24.422,VALID,184,VALID,0,
2011-07-22, 01:38:05,VALID,1003.33,VALID,0,INVALID,163.708,VALID,0.100563,VALID,24.4006,VALID,199,VALID,0,
2011-07-22, 01:39:05,VALID,1003.32,VALID,0,INVALID,163.739,VALID,0.100563,VALID,24.422,VALID,192,VALID,0,
2011-07-22, 01:40:05,VALID,1003.31,VALID,0,INVALID,163.769,VALID,0.100563,VALID,24.4025,VALID,148,VALID,0,
2011-07-22, 01:41:05,VALID,1003.29,VALID,0,INVALID,163.701,VALID,0,VALID,24.383,VALID,198,VALID,0,
2011-07-22, 01:42:05,VALID,1003.28,VALID,0,INVALID,163.716,VALID,0,VALID,24.383,VALID,187,VALID,0,
2011-07-22, 01:43:05,VALID,1003.25,VALID,0,INVALID,163.754,VALID,0.100563,VALID,24.3441,VALID,145,VALID,0,
2011-07-22, 01:44:05,VALID,1003.18,VALID,0,INVALID,163.762,VALID,0,VALID,24.3246,VALID,186,VALID,0,
2011-07-22, 01:45:05,VALID,1003.2,VALID,0,INVALID,163.784,VALID,0,VALID,24.307,VALID,203,VALID,0,
2011-07-22, 01:46:05,VALID,1003.2,VALID,0,INVALID,163.731,VALID,0,VALID,24.2875,VALID,175,VALID,0,
2011-07-22, 01:47:05,VALID,1003.17,VALID,0,INVALID,163.701,VALID,0,VALID,24.2875,VALID,153,VALID,0,
2011-07-22, 01:48:05,VALID,1003.14,VALID,0.5,INVALID,163.716,VALID,0,VALID,24.307,VALID,165,VALID,0,
2011-07-22, 01:49:05,VALID,1003.12,VALID,0,INVALID,163.708,VALID,0,VALID,24.3459,VALID,194,VALID,0,
2011-07-22, 01:50:05,VALID,1003.13,VALID,0,INVALID,163.693,VALID,0,VALID,24.3636,VALID,179,VALID,0,
2011-07-22, 01:51:05,VALID,1003.1,VALID,0,INVALID,163.723,VALID,0,VALID,24.3849,VALID,245,VALID,0,
2011-07-22, 01:52:05,VALID,1003.1,VALID,0,INVALID,163.731,VALID,0,VALID,24.383,VALID,235,VALID,0,
2011-07-22, 01:53:05,VALID,1003.09,VALID,0,INVALID,163.693,VALID,0,VALID,24.422,VALID,198,VALID,0,
2011-07-22, 01:54:05,VALID,1003.09,VALID,0,INVALID,163.701,VALID,0,VALID,24.4822,VALID,225,VALID,0,
2011-07-22, 01:55:05,VALID,1003.04,VALID,0,INVALID,163.777,VALID,0,VALID,24.5601,VALID,181,VALID,0,
2011-07-22, 01:56:05,VALID,1003.08,VALID,0,INVALID,163.777,VALID,0,VALID,24.638,VALID,184,VALID,0,
2011-07-22, 01:57:05,VALID,1002.99,VALID,0,INVALID,163.678,VALID,0,VALID,24.6769,VALID,230,VALID,0,
2011-07-22, 01:58:05,VALID,1003.02,VALID,0,INVALID,163.678,VALID,0,VALID,24.7159,VALID,217,VALID,0,
2011-07-22, 01:59:05,VALID,1003.03,VALID,0,INVALID,163.693,VALID,0,VALID,24.7548,VALID,206,VALID,0,
2011-07-22, 02:00:05,VALID,1002.99,VALID,0,INVALID,163.693,VALID,0,VALID,24.7919,VALID,222,VALID,0,
2011-07-22, 02:01:05,VALID,1003,VALID,0,INVALID,163.678,VALID,0,VALID,24.8095,VALID,179,VALID,0,
2011-07-22, 02:02:05,VALID,1003,VALID,0,INVALID,163.67,VALID,0,VALID,24.8522,VALID,193,VALID,0,
2011-07-22, 02:03:05,VALID,1003,VALID,0,INVALID,163.701,VALID,0,VALID,24.8697,VALID,194,VALID,0,
2011-07-22, 02:04:05,VALID,1002.99,VALID,0,INVALID,163.678,VALID,0.100563,VALID,24.8679,VALID,182,VALID,0,
2011-07-22, 02:05:05,VALID,1002.99,VALID,0,INVALID,163.739,VALID,0,VALID,24.9106,VALID,207,VALID,0,
2011-07-22, 02:06:05,VALID,1002.98,VALID,0,INVALID,163.685,VALID,0,VALID,24.9087,VALID,184,VALID,0,
2011-07-22, 02:07:05,VALID,1002.91,VALID,0,INVALID,163.655,VALID,0,VALID,24.9087,VALID,179,VALID,0,
2011-07-22, 02:08:05,VALID,1002.95,VALID,0,INVALID,163.67,VALID,0,VALID,24.9087,VALID,158,VALID,0,
2011-07-22, 02:09:05,VALID,1002.92,VALID,0,INVALID,163.678,VALID,0.100563,VALID,24.9087,VALID,211,VALID,0,
2011-07-22, 02:10:05,VALID,1002.88,VALID,0,INVALID,163.67,VALID,0,VALID,24.9282,VALID,196,VALID,0,
2011-07-22, 02:11:05,VALID,1002.86,VALID,0,INVALID,163.678,VALID,0,VALID,24.9282,VALID,200,VALID,0,
2011-07-22, 02:12:05,VALID,1002.86,VALID,0,INVALID,163.67,VALID,0,VALID,24.9671,VALID,218,VALID,0,
2011-07-22, 02:13:05,VALID,1002.83,VALID,0,INVALID,163.716,VALID,0,VALID,24.9671,VALID,193,VALID,0,
2011-07-22, 02:14:05,VALID,1002.82,VALID,0,INVALID,163.67,VALID,0,VALID,24.9885,VALID,186,VALID,0,
2011-07-22, 02:15:05,VALID,1002.8,VALID,0,INVALID,163.685,VALID,0,VALID,24.9885,VALID,187,VALID,0,
2011-07-22, 02:16:05,VALID,1002.73,VALID,0,INVALID,163.662,VALID,0,VALID,24.9866,VALID,173,VALID,0,
2011-07-22, 02:17:05,VALID,1002.77,VALID,0,INVALID,163.678,VALID,0,VALID,24.9885,VALID,180,VALID,0,
2011-07-22, 02:18:05,VALID,1002.76,VALID,0,INVALID,163.678,VALID,0,VALID,24.9885,VALID,186,VALID,0,
2011-07-22, 02:19:05,VALID,1002.77,VALID,0,INVALID,163.685,VALID,0,VALID,24.9671,VALID,184,VALID,0,
2011-07-22, 02:20:05,VALID,1002.77,VALID,0,INVALID,163.723,VALID,0,VALID,24.969,VALID,207,VALID,0,
2011-07-22, 02:21:05,VALID,1002.78,VALID,0,INVALID,163.685,VALID,0,VALID,24.9282,VALID,172,VALID,0,
2011-07-22, 02:22:05,VALID,1002.77,VALID,0,INVALID,163.708,VALID,0,VALID,24.8892,VALID,199,VALID,0,
2011-07-22, 02:23:05,VALID,1002.83,VALID,0,INVALID,163.678,VALID,0,VALID,24.93,VALID,207,VALID,0,
2011-07-22, 02:24:05,VALID,1002.85,VALID,0,INVALID,163.678,VALID,0,VALID,24.8697,VALID,195,VALID,0,
2011-07-22, 02:25:05,VALID,1002.83,VALID,0,INVALID,163.685,VALID,0.100563,VALID,24.8522,VALID,194,VALID,0,
2011-07-22, 02:26:05,VALID,1002.82,VALID,0,INVALID,163.716,VALID,0,VALID,24.8113,VALID,201,VALID,0,
2011-07-22, 02:27:05,VALID,1002.81,VALID,0,INVALID,163.731,VALID,0,VALID,24.7919,VALID,191,VALID,0,
2011-07-22, 02:28:05,VALID,1002.79,VALID,0,INVALID,163.678,VALID,0,VALID,24.7548,VALID,210,VALID,0,
2011-07-22, 02:29:05,VALID,1002.77,VALID,0,INVALID,163.701,VALID,0,VALID,24.7159,VALID,198,VALID,0,
2011-07-22, 02:30:05,VALID,1002.77,VALID,0,INVALID,163.685,VALID,0,VALID,24.6361,VALID,167,VALID,0,
2011-07-22, 02:31:05,VALID,1002.77,VALID,0,INVALID,163.693,VALID,0,VALID,24.5972,VALID,185,VALID,0,
2011-07-22, 02:32:05,VALID,1002.75,VALID,0,INVALID,163.754,VALID,0,VALID,24.5777,VALID,199,VALID,0,
2011-07-22, 02:33:05,VALID,1002.72,VALID,0,INVALID,163.708,VALID,0,VALID,24.5388,VALID,224,VALID,0,
2011-07-22, 02:34:05,VALID,1002.76,VALID,0,INVALID,163.723,VALID,0,VALID,24.5017,VALID,198,VALID,0,
2011-07-22, 02:35:05,VALID,1002.74,VALID,0,INVALID,163.693,VALID,0,VALID,24.4804,VALID,185,VALID,0,
2011-07-22, 02:36:05,VALID,1002.76,VALID,0,INVALID,163.746,VALID,0,VALID,24.4822,VALID,187,VALID,0,
2011-07-22, 02:37:05,VALID,1002.76,VALID,0,INVALID,163.716,VALID,0,VALID,24.4628,VALID,196,VALID,0,
2011-07-22, 02:38:05,VALID,1002.75,VALID,0,INVALID,163.723,VALID,0,VALID,24.422,VALID,210,VALID,0,
2011-07-22, 02:39:05,VALID,1002.74,VALID,0,INVALID,163.708,VALID,0,VALID,24.4433,VALID,170,VALID,0,
2011-07-22, 02:40:05,VALID,1002.74,VALID,0,INVALID,163.723,VALID,0,VALID,24.4238,VALID,171,VALID,0,
2011-07-22, 02:41:05,VALID,1002.75,VALID,0,INVALID,163.731,VALID,0,VALID,24.4025,VALID,179,VALID,0,
2011-07-22, 02:42:05,VALID,1002.76,VALID,0,INVALID,163.723,VALID,0,VALID,24.4043,VALID,191,VALID,0,
2011-07-22, 02:43:05,VALID,1002.74,VALID,0,INVALID,163.708,VALID,0,VALID,24.4043,VALID,196,VALID,0,
2011-07-22, 02:44:05,VALID,1002.73,VALID,0,INVALID,163.693,VALID,0,VALID,24.4025,VALID,214,VALID,0,
2011-07-22, 02:45:05,VALID,1002.69,VALID,0,INVALID,163.723,VALID,0,VALID,24.422,VALID,182,VALID,0,
2011-07-22, 02:46:05,VALID,1002.7,VALID,0,INVALID,163.716,VALID,0,VALID,24.4414,VALID,195,VALID,0,
2011-07-22, 02:47:05,VALID,1002.69,VALID,0,INVALID,163.693,VALID,0,VALID,24.4609,VALID,198,VALID,0,
2011-07-22, 02:48:05,VALID,1002.69,VALID,0,INVALID,163.708,VALID,0,VALID,24.4804,VALID,213,VALID,0,
2011-07-22, 02:49:04,VALID,1002.61,VALID,0,INVALID,163.701,VALID,0,VALID,24.5406,VALID,250,VALID,0,
2011-07-22, 02:50:04,VALID,1002.64,VALID,0,INVALID,163.693,VALID,0,VALID,24.5777,VALID,251,VALID,0,
2011-07-22, 02:51:04,VALID,1002.57,VALID,0,INVALID,163.731,VALID,0,VALID,24.638,VALID,290,VALID,0,
2011-07-22, 02:52:04,VALID,1002.57,VALID,0,INVALID,163.701,VALID,0,VALID,24.6769,VALID,232,VALID,0,
2011-07-22, 02:53:04,VALID,1002.55,VALID,0,INVALID,163.716,VALID,0,VALID,24.7353,VALID,229,VALID,0,
2011-07-22, 02:54:04,VALID,1002.59,VALID,0,INVALID,163.678,VALID,0,VALID,24.7529,VALID,232,VALID,0,
2011-07-22, 02:55:04,VALID,1002.61,VALID,0,INVALID,163.716,VALID,0,VALID,24.8522,VALID,225,VALID,0,
2011-07-22, 02:56:04,VALID,1002.54,VALID,0,INVALID,163.678,VALID,0,VALID,24.8697,VALID,223,VALID,0,
2011-07-22, 02:57:04,VALID,1002.42,VALID,0,INVALID,163.685,VALID,0,VALID,24.8697,VALID,292,VALID,0,
2011-07-22, 02:58:04,VALID,1002.52,VALID,0,INVALID,163.678,VALID,0,VALID,24.8503,VALID,273,VALID,0,
2011-07-22, 02:59:04,VALID,1002.54,VALID,0,INVALID,163.708,VALID,0,VALID,24.7724,VALID,276,VALID,0,
2011-07-22, 03:00:04,VALID,1002.5,VALID,0,INVALID,163.739,VALID,0,VALID,24.6964,VALID,251,VALID,0,
2011-07-22, 03:01:04,VALID,1002.55,VALID,0,INVALID,163.716,VALID,0,VALID,24.5972,VALID,187,VALID,0,
2011-07-22, 03:02:04,VALID,1002.52,VALID,0,INVALID,163.762,VALID,0,VALID,24.4998,VALID,273,VALID,0,
2011-07-22, 03:03:04,VALID,1002.51,VALID,0,INVALID,163.708,VALID,0,VALID,24.4628,VALID,288,VALID,0,
2011-07-22, 03:04:04,VALID,1002.43,VALID,0,INVALID,163.746,VALID,0,VALID,24.4238,VALID,269,VALID,0,
2011-07-22, 03:05:04,VALID,1002.44,VALID,0,INVALID,163.716,VALID,0,VALID,24.3849,VALID,262,VALID,0,
2011-07-22, 03:06:04,VALID,1002.39,VALID,0,INVALID,163.739,VALID,0,VALID,24.3636,VALID,254,VALID,0,
2011-07-22, 03:07:04,VALID,1002.34,VALID,0,INVALID,163.754,VALID,0,VALID,24.3246,VALID,297,VALID,0,
2011-07-22, 03:08:04,VALID,1002.36,VALID,0,INVALID,163.693,VALID,0,VALID,24.3441,VALID,191,VALID,0,
2011-07-22, 03:09:04,VALID,1002.32,VALID,0,INVALID,163.708,VALID,0,VALID,24.3246,VALID,256,VALID,0,
2011-07-22, 03:10:04,VALID,1002.24,VALID,0,INVALID,163.746,VALID,0,VALID,24.3636,VALID,226,VALID,0,
2011-07-22, 03:11:04,VALID,1002.18,VALID,0,INVALID,163.708,VALID,0,VALID,24.4025,VALID,272,VALID,0,
2011-07-22, 03:12:04,VALID,1002.23,VALID,0,INVALID,163.708,VALID,0.100563,VALID,24.4238,VALID,291,VALID,0,
2011-07-22, 03:13:04,VALID,1002.23,VALID,0,INVALID,163.754,VALID,0,VALID,24.4025,VALID,243,VALID,0,
2011-07-22, 03:14:04,VALID,1002.25,VALID,0,INVALID,163.708,VALID,0,VALID,24.422,VALID,316,VALID,0,
2011-07-22, 03:15:04,VALID,1002.21,VALID,0,INVALID,163.716,VALID,0,VALID,24.422,VALID,293,VALID,0,
2011-07-22, 03:16:04,VALID,1002.26,VALID,0,INVALID,163.685,VALID,0,VALID,24.4628,VALID,259,VALID,0,
2011-07-22, 03:17:04,VALID,1002.21,VALID,0,INVALID,163.746,VALID,0,VALID,24.5212,VALID,258,VALID,0,
2011-07-22, 03:18:04,VALID,1002.2,VALID,0,INVALID,163.708,VALID,0,VALID,24.5406,VALID,221,VALID,0,
2011-07-22, 03:19:04,VALID,1002.22,VALID,0,INVALID,163.731,VALID,0,VALID,24.5582,VALID,300,VALID,0,
2011-07-22, 03:20:04,VALID,1002.22,VALID,0,INVALID,163.723,VALID,0,VALID,24.6185,VALID,269,VALID,0,
2011-07-22, 03:21:04,VALID,1002.21,VALID,0,INVALID,163.723,VALID,0,VALID,24.6185,VALID,291,VALID,0,
2011-07-22, 03:22:04,VALID,1002.18,VALID,0,INVALID,163.701,VALID,0,VALID,24.6185,VALID,272,VALID,0,
2011-07-22, 03:23:04,VALID,1002.16,VALID,0,INVALID,163.723,VALID,0,VALID,24.5972,VALID,299,VALID,0,
2011-07-22, 03:24:04,VALID,1002.16,VALID,0,INVALID,163.701,VALID,0,VALID,24.5777,VALID,284,VALID,0,
2011-07-22, 03:25:04,VALID,1002.15,VALID,0,INVALID,163.731,VALID,0,VALID,24.5796,VALID,296,VALID,0,
2011-07-22, 03:26:04,VALID,1002.1,VALID,0,INVALID,163.716,VALID,0,VALID,24.5582,VALID,330,VALID,0,
2011-07-22, 03:27:04,VALID,1002.05,VALID,0,INVALID,163.662,VALID,0,VALID,24.5601,VALID,303,VALID,0,
2011-07-22, 03:28:04,VALID,1002.06,VALID,0,INVALID,163.693,VALID,0,VALID,24.4998,VALID,311,VALID,0,
2011-07-22, 03:29:04,VALID,1002.06,VALID,0,INVALID,163.693,VALID,0,VALID,24.4609,VALID,296,VALID,0,
2011-07-22, 03:30:04,VALID,1002.04,VALID,0,INVALID,163.693,VALID,0,VALID,24.4804,VALID,284,VALID,0,
2011-07-22, 03:31:04,VALID,1002.02,VALID,0,INVALID,163.693,VALID,0,VALID,24.4414,VALID,294,VALID,0,
2011-07-22, 03:32:04,VALID,1002,VALID,0,INVALID,163.739,VALID,0,VALID,24.4025,VALID,307,VALID,0,
2011-07-22, 03:33:04,VALID,1001.97,VALID,0,INVALID,163.716,VALID,0,VALID,24.3636,VALID,290,VALID,0,
2011-07-22, 03:34:04,VALID,1001.96,VALID,0,INVALID,163.762,VALID,0,VALID,24.3441,VALID,291,VALID,0,
2011-07-22, 03:35:04,VALID,1001.95,VALID,0,INVALID,163.784,VALID,0,VALID,24.3246,VALID,323,VALID,0,
2011-07-22, 03:36:04,VALID,1001.92,VALID,0,INVALID,163.708,VALID,0,VALID,24.3265,VALID,306,VALID,0,
2011-07-22, 03:37:04,VALID,1001.9,VALID,0,INVALID,163.723,VALID,0,VALID,24.307,VALID,290,VALID,0,
2011-07-22, 03:38:04,VALID,1001.89,VALID,0,INVALID,163.708,VALID,0,VALID,24.2857,VALID,302,VALID,0,
2011-07-22, 03:39:04,VALID,1001.85,VALID,0,INVALID,163.754,VALID,0,VALID,24.2875,VALID,298,VALID,0,
2011-07-22, 03:40:04,VALID,1001.84,VALID,0,INVALID,163.731,VALID,0,VALID,24.2681,VALID,298,VALID,0,
2011-07-22, 03:41:04,VALID,1001.8,VALID,0,INVALID,163.693,VALID,0,VALID,24.2273,VALID,282,VALID,0,
2011-07-22, 03:42:04,VALID,1001.8,VALID,0,INVALID,163.723,VALID,0,VALID,24.2486,VALID,276,VALID,0,
2011-07-22, 03:43:04,VALID,1001.77,VALID,0,INVALID,163.754,VALID,0,VALID,24.2273,VALID,317,VALID,0,
2011-07-22, 03:44:04,VALID,1001.77,VALID,0,INVALID,163.754,VALID,0,VALID,24.2681,VALID,328,VALID,0,
2011-07-22, 03:45:04,VALID,1001.72,VALID,0,INVALID,163.731,VALID,0,VALID,24.2273,VALID,288,VALID,0,
2011-07-22, 03:46:04,VALID,1001.74,VALID,0,INVALID,163.739,VALID,0,VALID,24.2662,VALID,349,VALID,0,
2011-07-22, 03:47:04,VALID,1001.72,VALID,0,INVALID,163.708,VALID,0,VALID,24.2857,VALID,288,VALID,0,
2011-07-22, 03:48:04,VALID,1001.72,VALID,0.5,INVALID,163.723,VALID,0,VALID,24.3459,VALID,249,VALID,0,
2011-07-22, 03:49:04,VALID,1001.69,VALID,0,INVALID,163.716,VALID,0,VALID,24.3849,VALID,279,VALID,0,
2011-07-22, 03:50:04,VALID,1001.67,VALID,0,INVALID,163.708,VALID,0,VALID,24.4609,VALID,283,VALID,0,
2011-07-22, 03:51:04,VALID,1001.65,VALID,0,INVALID,163.693,VALID,0,VALID,24.5193,VALID,287,VALID,0,
2011-07-22, 03:52:04,VALID,1001.65,VALID,0,INVALID,163.701,VALID,0,VALID,24.6166,VALID,299,VALID,0,
2011-07-22, 03:53:04,VALID,1001.62,VALID,0,INVALID,163.701,VALID,0,VALID,24.6556,VALID,266,VALID,0,